This demonstration page uses our WeatherBlox Daily Observations layout. Learn more.

Left ArrowRight Arrow

30.21309, -93.2044

Hourly Observations for August 30, 2022

Temp ( °F °C ) Dew Point ( °F °C ) Humidity (%) Winds ( mph kmh ) Pressure ( in mb ) Visibility ( mi km ) Precip ( " mm )
12:15 am 00:15 Partly Cloudy 78 25.4 75 24.1 93 93 N 5 7 29.98 1015 10 16 0.00 0.00
12:35 am 00:35 Clear 78 25.3 75 24 93 93 N 3 6 29.98 1015 10 16 0.00 0.00
12:55 am 00:55 Clear 77 25.2 75 23.9 93 93 Calm 29.98 1015 10 16 0.00 0.00
1:15 am 01:15 Clear 77 25.1 75 23.9 93 93 Calm 29.98 1015 10 16 0.00 0.00
1:35 am 01:35 Clear 77 25 75 23.9 94 94 NNW 3 6 29.98 1015 10 16 0.00 0.00
1:55 am 01:55 Clear 77 24.9 75 23.9 94 94 ENE 3 6 29.97 1015 7 11 0.00 0.00
2:15 am 02:15 Clear 77 24.9 75 23.9 94 94 Calm 29.97 1015 10 16 0.00 0.00
2:35 am 02:35 Clear 77 24.9 75 23.9 94 94 ENE 3 6 29.97 1015 10 16 0.00 0.00
2:55 am 02:55 Clear 77 24.8 75 23.8 94 94 ENE 3 6 29.97 1015 7 11 0.00 0.00
3:15 am 03:15 Clear 77 24.8 75 23.9 95 95 Calm 29.97 1015 10 16 0.00 0.00
3:35 am 03:35 Clear 77 24.8 75 23.8 94 94 Calm 29.97 1015 10 16 0.00 0.00
3:55 am 03:55 Clear with Mist and Fog 76 24.5 75 23.7 95 95 Calm 29.98 1015 3 4 0.00 0.00
4:15 am 04:15 Clear with Mist and Fog 76 24.2 74 23.4 95 95 Calm 29.98 1015 5 8 0.00 0.00
4:35 am 04:35 Partly Cloudy 76 24.7 75 23.9 95 95 NNE 6 9 29.98 1015 10 16 0.00 0.00
4:55 am 04:55 Partly Cloudy 77 24.8 75 23.9 95 95 N 3 6 29.99 1016 10 16 0.00 0.00
5:15 am 05:15 Mostly Cloudy 76 24.6 75 23.7 95 95 NNE 5 7 29.99 1016 7 11 0.00 0.00
5:35 am 05:35 Cloudy with Mist and Fog 76 24.7 75 23.9 95 95 NNE 5 7 29.99 1016 5 8 0.00 0.00
6:00 am 06:00 Cloudy with Mist and Fog 75 24 75 24 100 100 NE 3 6 30.00 1016 3 5 0.00 0.00
6:55 am 06:55 Mostly Cloudy with Mist and Fog 75 24 75 24 100 100 NE 3 6 30.00 1016 6 10 0.00 0.00
7:20 am 07:20 Partly Cloudy 75 24 75 24 100 100 Calm 30.01 1016 7 11 0.00 0.00
7:55 am 07:55 Partly Cloudy 79 26 75 24 89 89 Calm 30.01 1016 7 11 0.00 0.00
8:47 am 08:47 Partly Cloudy 81 27 79 26 94 94 ESE 5 7 30.02 1017 10 16 0.00 0.00
9:55 am 09:55 Mostly Cloudy 82 28 79 26 89 89 ESE 8 13 30.02 1017 10 16 0.00 0.00
10:15 am 10:15 Partly Cloudy 84 29 79 26 84 84 ESE 5 7 30.02 1017 10 16 0.00 0.00
10:45 am 10:45 Mostly Cloudy 84 29 79 26 84 84 ESE 8 13 30.03 1017 10 16 0.00 0.00
11:55 am 11:55 Partly Cloudy 88 31 79 26 75 75 ESE 6 9 30.03 1017 10 16 0.00 0.00
1:55 pm 13:55 Partly Cloudy 91 33 75 24 59 59 E 3 6 29.99 1016 10 16 0.00 0.00
2:45 pm 14:45 Partly Cloudy with Thunderstorms 91 33 73 23 56 56 Calm 29.98 1015 10 16 0.00 0.00
3:45 pm 15:45 Mostly Sunny 86 30 73 23 66 66 WSW 8 13 29.96 1014 10 16 0.00 0.00
4:45 pm 16:45 Partly Cloudy 88 31 75 24 66 66 SSW 12 19 29.96 1014 10 16 0.00 0.00
5:50 pm 17:50 Partly Cloudy 88 31 75 24 66 66 WSW 10 17 29.98 1015 10 16 0.00 0.00
6:45 pm 18:45 Partly Cloudy 84 29 75 24 74 74 W 5 7 29.99 1016 10 16 0.00 0.00
7:53 pm 19:53 Partly Cloudy with Thunderstorms 82 28 75 24 79 79 N 6 9 29.99 1016 10 16 0.00 0.00
8:45 pm 20:45 Partly Cloudy with Thunderstorms 81 27 73 23 79 79 ENE 6 9 30.02 1017 10 16 0.00 0.00
9:45 pm 21:45 Partly Cloudy with Thunderstorms 81 27 75 24 84 84 ENE 8 13 30.05 1018 10 16 0.00 0.00
10:15 pm 22:15 Mostly Cloudy 79 25.9 71 21.9 79 79 ENE 10 17 30.06 1018 10 16 0.00 0.00
10:35 pm 22:35 Partly Cloudy 78 25.5 70 21.3 78 78 ENE 7 11 30.05 1018 10 16 0.00 0.00
10:55 pm 22:55 Clear 77 25 70 21.2 79 79 E 6 9 30.04 1017 10 16 0.00 0.00
11:15 pm 23:15 Clear 76 24.6 70 21.2 81 81 E 5 7 30.03 1017 10 16 0.00 0.00
11:35 pm 23:35 Clear 75 23.8 70 21.2 85 85 ESE 3 6 30.03 1017 10 16 0.00 0.00
11:55 pm 23:55 Clear 75 24 70 21.2 84 84 Calm 30.02 1017 10 16 0.00 0.00

Powered by AerisWeather